[[{"header":{"parameterUnit":"m.s-1","parameterCategory":1,"la1":30.2991,"la2":30.254,"lo1":-89.0895,"lo2":-89.0444,"dy":0.0017,"dx":0.0017,"nx":28,"ny":28,"refTime":"2024-02-23T09:00:00:Z","depth":0,"parameterNumber":2,"parameterNumberName":"U-component_of_WINDS"},"data":[0,0,0,0,0,0,0,0,0,0,0,0,0,0,0,0,0,0,0,0,0,0,0,0,0,0,0,0,0,0,0,0,0,0,0,0,0,0,0,0,0,0,0,0,0,0,0,0,0,0,0,0,0,0,0,0,0,0,4.7903,4.7904,0,4.793,4.793,4.7931,4.7926,4.7925,4.7925,4.7924,4.7951,4.7952,4.7953,0,0,0,0,0,0,0,0,0,0,0,0,0,4.7849,4.785,4.7903,4.7904,4.7904,4.793,4.793,4.7931,4.7926,4.7925,4.7925,4.7924,4.7951,4.7952,4.7953,0,0,0,0,0,0,0,0,0,0,0,0,0,4.7874,4.7851,4.7903,4.7905,4.7905,4.793,4.793,4.7931,4.7926,4.7925,4.7925,4.7924,4.795,4.7952,4.7954,4.7978,0,0,4.7959,4.796,0,0,0,0,0,0,0,0,4.7873,4.7876,4.7904,4.7905,4.7905,4.7924,4.7921,4.7947,4.7926,4.7918,4.7924,4.7924,4.7943,4.7945,4.7951,4.798,4.7981,4.7959,4.796,4.7961,4.7961,0,0,0,0,0,0,0,4.7871,4.7875,4.7914,4.7905,4.7905,4.7905,4.7907,4.7926,4.7934,4.7919,4.7918,4.7922,4.7943,4.795,4.7952,4.7981,4.7959,4.7961,4.7962,4.7962,4.8033,4.8034,0,0,0,0,0,0,4.7869,4.7873,4.7913,4.7915,4.7887,4.7906,4.7909,4.7919,4.7934,4.7935,4.7922,4.7921,4.7947,4.795,4.7953,4.7984,4.7961,4.7962,4.7963,4.8032,4.8033,4.8034,0,0,0,0,0,0,4.7868,4.7872,4.7912,4.7894,4.7899,4.7908,4.7918,4.7919,4.7926,4.7936,4.7938,4.7928,4.7947,4.7951,4.7973,4.7985,4.7963,4.7965,4.8031,4.8033,4.8034,4.8045,0,0,0,0,0,0,4.7866,4.7872,4.7881,4.7894,4.79,4.7931,4.7919,4.7921,4.793,4.7929,4.7942,4.7944,4.7946,4.797,4.7974,4.7987,4.7966,4.803,4.8032,4.8033,4.8044,4.8046,4.8049,0,0,0,0,0,4.7864,4.7882,4.7881,4.7886,4.7911,4.7931,4.7935,4.7938,4.793,4.794,4.7947,4.7943,4.7983,4.7972,4.7977,4.799,4.8029,4.8031,4.8033,4.8042,4.8046,4.8049,0,0,0,0,0,0,4.7869,4.7884,4.7883,4.7906,4.7918,4.793,4.7942,4.7941,4.7955,4.7953,4.7956,4.796,4.7982,4.7988,4.7976,4.8016,4.8005,4.8008,4.8011,4.8014,4.8017,4.8014,4.7968,0,0,0,0,0,4.7873,4.7888,4.79,4.7919,4.7925,4.7933,4.7942,4.7944,4.7955,4.796,4.7968,4.798,4.7996,4.8005,4.802,4.8045,4.8048,4.8057,4.8059,4.8062,4.8064,4.8079,4.8083,4.8041,4.8041,4.8041,0,0,4.7881,4.7891,4.79,4.7921,4.793,4.7946,4.7937,4.7953,4.7965,4.7962,4.7984,4.7991,4.8004,4.8029,4.804,4.8035,4.8077,4.8064,4.8066,4.8067,4.8081,4.8085,4.8089,4.8042,4.8042,4.8041,0,0,4.7903,4.7912,4.793,4.794,4.7954,4.796,4.7964,4.7978,4.7982,4.8004,4.8003,4.8018,4.8044,4.8054,4.8062,4.8092,4.809,4.8097,4.811,4.8125,4.8129,4.8132,4.8143,4.8147,4.8099,4.8099,4.8099,0,4.7911,4.7934,4.7939,4.7956,4.7966,4.7966,4.7984,4.7993,4.8012,4.8019,4.8013,4.8047,4.8056,4.8083,4.8091,4.8098,4.8103,4.8094,4.8128,4.8131,4.8134,4.8144,4.8148,4.81,4.81,4.81,4.81,0,4.7943,4.796,4.7973,4.7992,4.8003,4.8021,4.8029,4.804,4.8041,4.8048,4.8071,4.8083,4.81,4.8107,4.8108,4.8135,4.8132,4.8127,4.8116,4.8139,4.8148,4.8153,4.8101,4.8101,4.8101,4.81,0,0,4.7967,4.799,4.7995,4.8004,4.8021,4.8034,4.8053,4.8071,4.8081,4.8095,4.8111,4.8134,4.8131,4.8141,4.8143,4.8157,4.8181,4.8151,4.8151,4.8156,4.8212,4.8215,4.8219,4.818,4.8181,4.8181,4.8211,0,4.7991,4.8024,4.803,4.8058,4.8075,4.8076,4.8093,4.8106,4.8113,4.8128,4.8136,4.8153,4.8147,4.8153,4.8166,4.8175,4.8192,4.8173,4.8195,4.8196,4.819,4.8224,4.8227,4.8254,4.8215,4.8215,4.8216,0,4.8022,4.8038,4.8069,4.8086,4.8093,4.8107,4.8126,4.814,4.8155,4.816,4.8172,4.8174,4.8195,4.8185,4.8213,4.82,4.821,4.8216,4.8217,4.8218,4.8206,4.8226,4.8263,4.8267,4.8222,4.8221,4.8221,0,4.8037,4.8065,4.8088,4.8096,4.8116,4.8127,4.8136,4.8151,4.8162,4.8178,4.8186,4.8204,4.8213,4.8228,4.8235,4.8227,4.8264,4.8254,4.8268,4.8268,4.8275,4.8274,4.8313,4.8282,4.8282,4.8282,4.8282,0,4.8062,4.8081,4.8095,4.8108,4.813,4.8138,4.8159,4.8168,4.8182,4.8198,4.8201,4.8216,4.8225,4.8242,4.8248,4.8271,4.8275,4.828,4.8281,4.8279,4.8279,4.8285,4.8283,4.8283,4.8283,4.8283,4.8282,0,4.8081,4.8091,4.8116,4.8134,4.8139,4.8155,4.817,4.8184,4.8193,4.8213,4.8219,4.8232,4.8252,4.8261,4.8285,4.829,4.8316,4.8316,4.8311,4.8311,4.8325,4.8324,4.8369,4.8375,4.8341,4.8341,4.8341,0,4.8096,4.8111,4.8131,4.8143,4.8152,4.817,4.8182,4.8191,4.8204,4.8224,4.8236,4.8256,4.8273,4.8305,4.8317,4.8336,4.8336,4.8351,4.8339,4.8337,4.8337,4.8335,4.8337,4.8353,4.8353,4.8353,4.8353,0,4.8122,4.8127,4.8144,4.8164,4.8178,4.8194,4.8209,4.8219,4.823,4.8244,4.8265,4.8279,4.8305,4.8325,4.8346,4.8356,4.8357,4.8358,4.8362,4.8359,4.8356,4.8358,4.8316,4.8356,4.8356,4.8356,4.8355,4.8355,4.8139,4.8153,4.817,4.819,4.8203,4.8218,4.8233,4.8244,4.8261,4.8284,4.8288,4.8311,4.8328,4.8356,4.8367,4.8385,4.8382,4.8388,4.8389,4.8391,4.8391,4.8354,4.8389,4.8389,4.8389,4.8389,4.8389,0,4.8165,4.8177,4.8195,4.8218,4.8234,4.8235,4.8253,4.8266,4.8286,4.8302,4.8319,4.8344,4.8365,4.8379,4.84,4.8412,4.8413,4.8417,4.8416,4.8419,4.8393,4.8387,4.8416,4.8416,4.8416,4.8416,4.8416,4.8416,4.8181,4.8204,4.8212,4.8243,4.8255,4.8277,4.8288,4.8302,4.8315,4.8343,4.836,4.837,4.8386,4.8409,4.8428,4.8432,4.844,4.8444,4.8447,4.8423,4.842,4.8417,4.8412,4.8446,4.8446,4.8471,4.8472,4.8472]},{"header":{"parameterUnit":"m.s-1","parameterCategory":1,"la1":30.2991,"la2":30.254,"lo1":-89.0895,"lo2":-89.0444,"dy":0.0017,"dx":0.0017,"nx":28,"ny":28,"refTime":"2024-02-23T09:00:00:Z","depth":0,"parameterNumber":3,"parameterNumberName":"V-component_of_WINDS"},"data":[0,0,0,0,0,0,0,0,0,0,0,0,0,0,0,0,0,0,0,0,0,0,0,0,0,0,0,0,0,0,0,0,0,0,0,0,0,0,0,0,0,0,0,0,0,0,0,0,0,0,0,0,0,0,0,0,0,0,-3.5276,-3.5276,0,-3.5223,-3.5222,-3.5221,-3.5253,-3.5254,-3.5256,-3.5257,-3.5193,-3.519,-3.5187,0,0,0,0,0,0,0,0,0,0,0,0,0,-3.5399,-3.5396,-3.5276,-3.5276,-3.5275,-3.5223,-3.5222,-3.5221,-3.5252,-3.5254,-3.5256,-3.5258,-3.5194,-3.5191,-3.5187,0,0,0,0,0,0,0,0,0,0,0,0,0,-3.5345,-3.5395,-3.5276,-3.5285,-3.5285,-3.5223,-3.5222,-3.5221,-3.5252,-3.5254,-3.5257,-3.5259,-3.5196,-3.5191,-3.5186,-3.5111,0,0,-3.5172,-3.517,0,0,0,0,0,0,0,0,-3.5348,-3.534,-3.5284,-3.5284,-3.5284,-3.5247,-3.5242,-3.5184,-3.5251,-3.5264,-3.5257,-3.526,-3.5209,-3.5203,-3.5188,-3.5108,-3.5105,-3.5172,-3.5169,-3.5167,-3.5165,0,0,0,0,0,0,0,-3.5352,-3.5343,-3.5255,-3.5283,-3.5283,-3.5288,-3.5283,-3.5231,-3.5224,-3.5263,-3.5265,-3.5259,-3.5209,-3.5192,-3.5186,-3.5104,-3.5172,-3.5167,-3.5165,-3.5163,-3.4959,-3.4956,0,0,0,0,0,0,-3.5356,-3.5346,-3.5257,-3.5253,-3.5323,-3.5284,-3.5279,-3.5256,-3.5225,-3.5222,-3.5257,-3.5261,-3.5199,-3.5192,-3.5184,-3.5093,-3.5167,-3.5162,-3.516,-3.4961,-3.4958,-3.4955,0,0,0,0,0,0,-3.5358,-3.5348,-3.5259,-3.53,-3.5289,-3.528,-3.5254,-3.5254,-3.5237,-3.522,-3.5218,-3.5242,-3.5201,-3.5191,-3.5129,-3.5091,-3.516,-3.5156,-3.4964,-3.496,-3.4957,-3.4909,0,0,0,0,0,0,-3.5362,-3.5348,-3.5321,-3.5299,-3.5287,-3.5207,-3.5252,-3.5251,-3.523,-3.5234,-3.5205,-3.5202,-3.5202,-3.5136,-3.5125,-3.5085,-3.5152,-3.4967,-3.4962,-3.4958,-3.4914,-3.4904,-3.4896,0,0,0,0,0,-3.5366,-3.5308,-3.532,-3.5309,-3.5253,-3.5205,-3.5197,-3.52,-3.5227,-3.5198,-3.5187,-3.5203,-3.5098,-3.513,-3.5117,-3.5076,-3.497,-3.4964,-3.4958,-3.4918,-3.4906,-3.4896,0,0,0,0,0,0,-3.5322,-3.5305,-3.5318,-3.5252,-3.523,-3.521,-3.5174,-3.5187,-3.5155,-3.516,-3.5163,-3.5156,-3.5091,-3.5078,-3.5114,-3.5001,-3.5037,-3.5029,-3.5011,-3.5,-3.4991,-3.4994,-3.5148,0,0,0,0,0,-3.5306,-3.527,-3.5256,-3.5199,-3.5188,-3.5183,-3.5162,-3.5167,-3.5142,-3.5132,-3.5117,-3.509,-3.5051,-3.5025,-3.4988,-3.4913,-3.4906,-3.4879,-3.487,-3.4862,-3.4853,-3.4811,-3.4798,-3.4936,-3.4936,-3.4936,0,0,-3.5269,-3.5256,-3.5232,-3.519,-3.5173,-3.5134,-3.5174,-3.5131,-3.5101,-3.5125,-3.5066,-3.5054,-3.5025,-3.4956,-3.4925,-3.4942,-3.4815,-3.4855,-3.4849,-3.4844,-3.4804,-3.4791,-3.4779,-3.4932,-3.4933,-3.4933,0,0,-3.5182,-3.517,-3.5121,-3.5104,-3.508,-3.5077,-3.5066,-3.5044,-3.5038,-3.498,-3.4997,-3.496,-3.4893,-3.4871,-3.4852,-3.4759,-3.4771,-3.4747,-3.4697,-3.4656,-3.4645,-3.4636,-3.46,-3.4588,-3.4739,-3.4739,-3.4739,0,-3.5139,-3.5083,-3.5093,-3.5049,-3.5028,-3.5052,-3.5001,-3.4983,-3.4947,-3.4931,-3.4953,-3.487,-3.4852,-3.4777,-3.4755,-3.4739,-3.4723,-3.4748,-3.4647,-3.4637,-3.4628,-3.4594,-3.4581,-3.4736,-3.4736,-3.4736,-3.4737,0,-3.5031,-3.4992,-3.4954,-3.4922,-3.4898,-3.485,-3.485,-3.4824,-3.4832,-3.4826,-3.4766,-3.4746,-3.4705,-3.4688,-3.4694,-3.4615,-3.4626,-3.4647,-3.4684,-3.4612,-3.458,-3.4567,-3.4731,-3.4733,-3.4733,-3.4734,0,0,-3.4911,-3.4888,-3.4873,-3.4859,-3.4835,-3.4803,-3.4756,-3.472,-3.4696,-3.4671,-3.4629,-3.4574,-3.4593,-3.4571,-3.4574,-3.4539,-3.4464,-3.4564,-3.4563,-3.4544,-3.4373,-3.4355,-3.4341,-3.4474,-3.4471,-3.447,-3.4375,0,-3.4822,-3.4743,-3.4751,-3.4674,-3.4637,-3.466,-3.4618,-3.4598,-3.4592,-3.4557,-3.4549,-3.4509,-3.4539,-3.4526,-3.4492,-3.448,-3.4429,-3.4488,-3.4432,-3.443,-3.4436,-3.4324,-3.4305,-3.4217,-3.4363,-3.4361,-3.4359,0,-3.4706,-3.468,-3.46,-3.4583,-3.4567,-3.453,-3.4497,-3.4465,-3.4442,-3.444,-3.4416,-3.4426,-3.4375,-3.4416,-3.4346,-3.4385,-3.4363,-3.4354,-3.4351,-3.4343,-3.4388,-3.4311,-3.4189,-3.4174,-3.434,-3.4341,-3.4343,0,-3.4624,-3.4569,-3.4515,-3.4502,-3.448,-3.4453,-3.4442,-3.4422,-3.4399,-3.437,-3.4355,-3.4319,-3.4298,-3.4269,-3.4268,-3.4298,-3.4196,-3.4237,-3.419,-3.4189,-3.4164,-3.4165,-3.4034,-3.4155,-3.4155,-3.4155,-3.4156,0,-3.4522,-3.4471,-3.4478,-3.4444,-3.4388,-3.4397,-3.434,-3.4332,-3.4314,-3.4276,-3.4294,-3.4258,-3.426,-3.4223,-3.4222,-3.4163,-3.4154,-3.4148,-3.4148,-3.4145,-3.4145,-3.4128,-3.4133,-3.4152,-3.4153,-3.4153,-3.4154,0,-3.442,-3.4423,-3.4364,-3.435,-3.4345,-3.4304,-3.429,-3.4256,-3.4254,-3.4206,-3.4195,-3.4189,-3.4146,-3.4143,-3.4093,-3.4092,-3.4019,-3.4027,-3.4028,-3.4028,-3.3981,-3.3984,-3.3831,-3.3811,-3.3948,-3.3946,-3.3945,0,-3.4353,-3.4315,-3.4298,-3.4276,-3.4264,-3.4228,-3.4206,-3.4214,-3.419,-3.4161,-3.413,-3.409,-3.4058,-3.3988,-3.3977,-3.3939,-3.3944,-3.3893,-3.3937,-3.3936,-3.394,-3.3941,-3.3936,-3.3883,-3.3881,-3.388,-3.3879,0,-3.4232,-3.4236,-3.4206,-3.4175,-3.415,-3.4125,-3.4103,-3.4083,-3.4088,-3.4059,-3.4018,-3.3993,-3.3944,-3.3902,-3.3865,-3.3851,-3.3864,-3.3866,-3.3853,-3.3848,-3.3849,-3.3845,-3.4001,-3.3868,-3.387,-3.387,-3.3871,-3.3871,-3.4144,-3.4111,-3.4095,-3.406,-3.4044,-3.4023,-3.3991,-3.3986,-3.3952,-3.3914,-3.3921,-3.3873,-3.385,-3.3803,-3.3786,-3.3747,-3.3764,-3.3745,-3.374,-3.3734,-3.3728,-3.3858,-3.374,-3.3741,-3.3741,-3.3741,-3.3742,0,-3.4022,-3.4014,-3.3982,-3.3951,-3.3923,-3.3944,-3.392,-3.3894,-3.3854,-3.3833,-3.3802,-3.3754,-3.3714,-3.3701,-3.3662,-3.3634,-3.3639,-3.3623,-3.3623,-3.3619,-3.3716,-3.3731,-3.3619,-3.3619,-3.3619,-3.3619,-3.3619,-3.3619,-3.3956,-3.3902,-3.3903,-3.3841,-3.3832,-3.3789,-3.3773,-3.3753,-3.3736,-3.3683,-3.3651,-3.3645,-3.3626,-3.3586,-3.355,-3.3547,-3.353,-3.3511,-3.351,-3.36,-3.3612,-3.3624,-3.3637,-3.3508,-3.3508,-3.3416,-3.3415,-3.3414]}]]